Location: Bruneau Dunes Observatory
(42.9024°N, 115.6902°W)
Time: 19:37:27
(UTC-06:00)

Daily predictions for brighter satellites

Satellite Brightness Start Highest point End
(mag) Time Altitude Azimuth Time Altitude Azimuth Time Altitude Azimuth
Tsikada Rocket 4.1 21:37:07 10° S 21:43:26 66° E 21:49:44 10° NNE
Cosmos 1626 Rocket 3.6 21:39:11 10° S 21:43:36 82° E 21:48:00 10° N
YAOGAN 11 4.3 21:39:58 10° S 21:44:16 73° WSW 21:48:34 10° NNW
H-2A R/B 3.7 21:42:25 10° S 21:46:16 52° W 21:50:09 10° NNW
Lacrosse 5 rocket 4.2 21:46:20 10° NW 21:48:40 15° NNW 21:51:06 10° NNE
PSLV R/B 3.4 21:46:07 10° W 21:49:36 65° S 21:53:08 10° E
Cosmos 1939 Rocket 3.1 21:49:55 10° SSE 21:54:00 60° ENE 21:58:04 10° N
Cosmos 1346 Rocket 3.8 21:56:04 10° SSE 21:59:22 27° E 22:02:42 10° NE
CZ-4 SHROUD 3.7 21:58:30 10° SE 22:01:31 43° ENE 22:04:33 10° N
Terra 4.1 22:00:48 10° ENE 22:01:40 10° ENE 22:02:31 10° NE
PSLV R/B 3.8 21:59:12 10° SE 22:02:08 40° ENE 22:05:06 10° N
Cosmos 1190 Rocket 4.3 21:57:50 10° S 22:02:55 49° ESE 22:08:03 10° NNE
ARGOS 4.4 21:59:49 10° ESE 22:04:19 28° ENE 22:08:51 10° N
SPOT 5 2.9 22:00:41 10° SSE 22:04:54 53° ENE 22:09:08 10° N
Cosmos 1953 Rocket 4.4 22:01:07 10° SSE 22:05:03 33° E 22:09:02 10° NNE
Nimbus 7 Rocket 4.4 21:59:39 10° NNE 22:05:34 65° ESE 22:11:24 10° S
ATLAS 3B R/B 3.0 22:01:36 10° SSW 22:09:10 63° ESE 22:16:35 10° NE
MetOp-B 4.5 22:05:49 10° SE 22:10:58 51° ENE 22:16:09 10° N
Cosmos 1634 Rocket 4.2 22:05:27 10° N 22:11:33 58° E 22:17:38 10° SSE
Lacrosse 5 4.5 22:10:21 10° NW 22:13:29 16° N 22:16:38 10° NE
H-2A R/B 3.8 22:14:44 10° E 22:17:59 18° ENE 22:21:17 10° NNE
Cosmos 676 Rocket 4.5 22:15:30 10° S 22:20:29 42° ESE 22:25:29 10° NNE
Cosmos 2369 Rocket 2.2 22:15:23 10° NNW 22:21:05 86° WSW 22:26:23 12° SSE
YAOGAN 6 3.4 22:18:23 14° SE 22:21:13 39° ENE 22:24:43 10° N
Cosmos 2346 Rocket 4.5 22:16:15 10° S 22:22:21 66° E 22:28:25 10° NNE
ERS-1 Rocket 4.0 22:19:43 10° S 22:24:29 44° W 22:29:17 10° NNW
DEBRIS 4.2 22:23:07 10° WNW 22:26:50 22° SW 22:28:40 12° S
SPOT 1/Viking Rocket 3.9 22:22:33 14° SE 22:26:51 50° ENE 22:31:49 10° N
Cosmos 1766 4.0 22:24:21 10° N 22:28:08 38° ENE 22:30:43 18° SE
Cosmos 2279 Rocket 4.4 22:23:56 10° N 22:29:58 47° ENE 22:34:50 16° SE
COSMOS 2455 3.8 22:24:10 10° SW 22:30:00 52° NW 22:35:54 10° NNE
USA 234 3.8 22:24:46 10° ESE 22:31:05 53° NNE 22:37:26 10° NW
Cosmos 1900 4.4 22:27:58 10° SSW 22:33:07 77° ESE 22:38:16 10° NE
CZ-2C R/B 3.8 22:34:17 10° W 22:34:27 10° W 22:34:37 10° W
Cosmos 1758 Rocket 3.6 22:34:20 11° S 22:38:25 61° E 22:42:43 10° NNE
Envisat 3.6 22:37:57 10° S 22:42:55 56° W 22:47:56 10° NNW
SL-27 R/B 2.9 22:44:18 24° SSE 22:45:43 37° ESE 22:48:50 10° NE
Cosmos 407 Rocket 3.5 22:41:20 10° SSW 22:46:35 86° WNW 22:51:50 10° NNE
CZ-4C R/B 3.9 22:48:42 14° ESE 22:48:42 14° ESE 22:51:12 10° ENE
BREEZE-M DEB (TANK) 2.8 22:46:20 10° WSW 22:49:33 49° NNW 22:51:32 10° NE
Cosmos 1825 Rocket 4.3 22:49:36 10° SSW 22:53:56 53° W 22:58:16 10° N
Cosmos 1805 4.3 22:50:50 10° NNE 22:54:24 31° ENE 22:55:51 24° ESE
USA 238 DEB 3.8 22:50:06 10° SSW 22:56:58 56° ESE 23:03:50 10° NE
USA 238 3.8 22:50:12 10° SSW 22:57:04 55° ESE 23:03:55 10° NE
COSMOS 2487 4.4 22:58:54 16° E 22:58:54 16° E 23:00:40 10° ENE
Lacrosse 4 Rocket 2.7 22:58:14 10° SW 23:02:05 42° NW 23:06:01 10° NNE
ISS -0.6 23:02:55 10° WNW 23:05:32 22° NNW 23:08:11 10° NE
COSMOS 2406 3.3 23:03:21 16° S 23:07:49 54° ESE 23:13:24 10° NNE
Cosmos 1954 Rocket 4.0 23:02:48 10° SSW 23:08:07 85° ESE 23:13:26 10° NNE
Cosmos 2084 3.3 23:04:04 10° NW 23:08:14 86° SW 23:10:11 32° SSE
Cosmos 1842 Rocket 4.4 23:04:40 10° N 23:08:44 36° ENE 23:10:19 27° ESE
Cosmos 1943 Rocket 2.1 23:04:34 10° NNW 23:10:09 86° WSW 23:13:25 26° SSE
DELTA 2 DEB (DPAF) 4.1 23:09:56 29° SSE 23:12:13 77° ENE 23:16:44 10° N
CZ-4C R/B 3.3 23:11:59 32° SSE 23:13:50 79° ENE 23:17:48 10° N
SeaSat 1 3.0 23:12:25 21° S 23:15:28 50° WSW 23:20:17 10° NW
Cosmos 1656 Rocket 4.1 23:11:08 10° NNW 23:16:44 54° ENE 23:19:38 27° SE
Cosmos 2208 Rocket 4.0 23:16:22 10° NNW 23:21:33 70° ENE 23:23:55 32° SE
Landsat 7 3.8 23:20:31 31° SSE 23:22:46 83° ENE 23:27:34 10° NNW
Atlas Centaur 2 3.9 23:17:12 10° WSW 23:23:15 27° S 23:25:27 24° SSE
Cosmos 1707 4.4 23:25:34 20° E 23:25:34 20° E 23:28:22 10° NE
PSLV R/B 3.9 23:23:42 10° W 23:26:59 41° SSW 23:26:59 41° SSW
Cosmos 1953 2.2 23:23:18 10° N 23:27:17 84° W 23:28:40 40° S
Lacrosse 5 rocket 4.4 23:27:55 10° NNW 23:29:30 12° N 23:31:07 10° NNE
NOSS 3-2 (C) 4.2 23:30:29 28° SE 23:31:30 30° ESE 23:37:03 10° NE
CZ-4 R/B 4.5 23:27:10 10° N 23:32:06 59° WNW 23:36:37 12° SSW
Cosmos 1741 Rocket 4.0 23:30:05 27° S 23:33:00 70° ESE 23:38:18 10° NNE
Geosat 4.0 23:28:44 10° NNE 23:33:44 61° ESE 23:36:05 30° S
Cosmos 2221 3.9 23:33:31 10° NNE 23:37:03 24° ENE 23:37:48 23° E
Aureole 2 4.2 23:34:45 10° NNW 23:37:34 59° NE 23:37:34 59° NE
Terra 1.7 23:36:48 39° SSE 23:38:36 83° ENE 23:43:23 10° NNW
Cosmos 1842 4.2 23:36:20 20° SW 23:38:45 44° WNW 23:42:30 10° N
Cosmos 1092 Rocket 4.1 23:36:22 31° SSE 23:39:20 60° E 23:45:30 10° NNE
Spot 4 3.9 23:38:04 40° SE 23:39:44 69° ENE 23:44:31 10° N
Cosmos-2242 3.7 23:35:34 10° NNW 23:39:51 51° W 23:41:48 29° SSW
ARGOS 4.1 23:41:02 21° SSW 23:44:20 42° W 23:49:30 10° NNW
Cosmos 1733 3.9 23:43:04 10° N 23:46:42 38° ENE 23:46:57 37° E
Nadezhda 4 Rocket 4.0 23:42:56 26° S 23:46:44 90° W 23:53:06 10° N
Cosmos 1850 Rocket 4.0 23:45:13 24° SSW 23:48:25 84° WNW 23:53:40 10° NNE
Cosmos 1140 Rocket 3.9 23:46:24 15° SSW 23:50:43 63° WNW 23:55:57 10° NNE
Cosmos 1570 Rocket 4.4 23:47:51 10° NNW 23:53:07 59° WSW 23:55:11 35° SSW
